"Pseudo-MPEC" for P11DAVk

Created 2023 Mar 22 15:22:10 UT using Find_Orb

Click here for an explanation of pseudo-MPECs

 
 Astrometry: 
     P11DAVk* C2023 03 18I'xIe7OGLMAstrometryC';dajuyB$B+@rjLy4P8St_l+`X*sH;wF51
     P11DAVk  C2023 03 18::U\EvTredacted;5.#,F%_@Y;YKG@D%$xSL9KISe$idTwS1_V=`F51
     P11DAVk  C2023 03 18[#nr:tsZS^p,d/13Pk_:6m1v#N\8+,XVQjx*Nnj8W!%sQK2EKIl6F51
     P11DAVk  C2023 03 18Eod[-Jw:(.@3x?click'3.skdy;$+;OT-?S#]h0-eJiME#du-Q)ZF51
     P11DAVk  C2023 03 18vmY;c7F$@Te_-hCuSP:WtBQHfL/rUin##c@:cx[=c@$R=S_nHBD?F52
     P11DAVk  C2023 03 18sF_EUWTx1UiQJ-O+$9%]Ew6^E8g\?`\Y_kj9jpKy:I!,.%yherehF52
     P11DAVk 2C2023 03 22bxeS\0k\w(V7div0Yi*:yxqfor#yW1$VygTdtjNeLKG\fK8v+\P5J04
     P11DAVk 3C2023 03 22v)gG,fXD4qeB6_2explanationd%9jLu`lGSB,5ru1b3bNkZrZ,8T14
     P11DAVk 3C2023 03 22Bwi`(*)Wku$D0Y6_DlG1/OWi7u:mq7\2:CvarT+6?'$cMN\U+WBUT14
     P11DAVk 3C2023 03 22KjMc_WEUTu=L)=HAx'^%-2brBt:QE^Xbeq?dMs_jhFqkgor%tY8jT14

Station data:
(F51) Pan-STARRS 1, Haleakala  (N20.707234 W156.255910)  US/Hawaii.
   Observers J. Bulger, T. Lowe, A. Schultz, M. Willman. Measurers K.
   Chambers, S. Chastel, T. de Boer, L. Denneau, J. Fairlamb, H. Flewelling,
   M. Huber, C.-C. Lin, E. Magnier, Y. Ramanjooloo, R. Wainscoat, R. Weryk.
   1.8-m Ritchey-Chrétien + CCD.
(F52) Pan-STARRS 2, Haleakala  (N20.707382 W156.255910)  US/Hawaii.
   Observers J. Bulger, T. Dukes, T. Lowe, A. Schultz, M. Willman. Measurers
   K. Chambers, S. Chastel, T. de Boer, L. Denneau, J. Fairlamb, H.
   Flewelling, M. Huber, C.-C. Lin, E. Magnier, Y. Ramanjooloo, R. Wainscoat,
   R. Weryk. 1.8-m Ritchey-Chrétien + CCD.
(J04) ESA Optical Ground Station, Tenerife  (N28.300921 W16.511830)  Canary
   Islands (Spain).  Observer D. Abreu. Measurers M. Micheli, D. Koschny, E.
   Schwab, M. Busch, A. Knöfel. 1.0-m f/4.4 reflector + CCD.
(T14) Mauna Kea-UH/Tholen NEO Follow-Up (CFHT)  (N19.825252 W155.468876)
   US/Hawaii. 3.6-m Canada-France-Hawaii Telescope.

Orbital elements:  P11DAVk
   Perihelion 2023 May 30.76115 +/- 3.42 TT = 18:16:03 (JD 2460095.26115)
Epoch 2023 Mar 22.0 TT = JDT 2460025.5   Earth MOID: 0.2152      AutoNEOCP
M 332.98885415 +/- 3.0              (J2000 ecliptic)
n   0.38719468 +/- 0.0259           Peri.  168.18652 +/- 4.1
a   1.86430282 +/- 0.0832           Node    58.83851 +/- 4.0
e   0.3437670 +/- 0.0446            Incl.    8.76861 +/- 0.07
P   2.55/929.75d           H 21.43  G  0.15   U 10.3
q 1.22341698 +/- 0.0292    Q 2.50518866 +/- 0.195
From 10 observations 2023 Mar. 18-22; mean residual 0".06
Residuals in arcseconds: 
230318 F51  .02-  .07+    230318 F52  .01-  .02-    230322 T14  .08-  .11-    
230318 F51  .02+  .08-    230318 F52  .03-  .01-    230322 T14  .02+  .00     
230318 F51  .00   .07+    230322 J04  .06+  .02-    
230318 F51  .06+  .04-    230322 T14  .06+  .10+    

Ephemerides (geocentric):
Date (UTC) HH   RA             Dec           delta  r     elong  mag " sig PA
---- --------  ------------   ------------  ------ ------ -----  --- --------
2023 03 22 15  11 00 20.630   +34 26 10.31  .43799 1.3678 141.9 21.6 1.97  68
2023 03 22 16  11 00 17.865   +34 26 05.23  .43793 1.3677 141.8 21.6 2.21  67
2023 03 22 17  11 00 15.102   +34 26 00.05  .43786 1.3675 141.8 21.6 2.45  67
2023 03 22 18  11 00 12.343   +34 25 54.79  .43780 1.3674 141.8 21.6 2.70  66
2023 03 22 19  11 00 09.586   +34 25 49.44  .43774 1.3672 141.7 21.6 2.95  66
2023 03 22 20  11 00 06.832   +34 25 44.00  .43768 1.3671 141.7 21.6 3.21  65
2023 03 22 21  11 00 04.081   +34 25 38.48  .43762 1.3669 141.7 21.6 3.47  65
2023 03 22 22  11 00 01.332   +34 25 32.86  .43756 1.3667 141.6 21.6 3.73  65
2023 03 22 23  10 59 58.587   +34 25 27.16  .43750 1.3666 141.6 21.6 4.00  64
2023 03 23 00  10 59 55.844   +34 25 21.37  .43744 1.3664 141.6 21.6 4.27  64
2023 03 23 01  10 59 53.104   +34 25 15.49  .43738 1.3663 141.5 21.6 4.55  64
2023 03 23 02  10 59 50.367   +34 25 09.52  .43732 1.3661 141.5 21.6 4.83  64
2023 03 23 03  10 59 47.633   +34 25 03.46  .43726 1.3660 141.5 21.6 5.12  63
2023 03 23 04  10 59 44.902   +34 24 57.31  .43720 1.3658 141.4 21.6 5.41  63
2023 03 23 05  10 59 42.174   +34 24 51.07  .43714 1.3657 141.4 21.6 5.71  63
2023 03 23 06  10 59 39.448   +34 24 44.75  .43708 1.3655 141.4 21.6 6.01  63
2023 03 23 07  10 59 36.726   +34 24 38.34  .43702 1.3653 141.3 21.6 6.31  63
2023 03 23 08  10 59 34.007   +34 24 31.83  .43696 1.3652 141.3 21.6 6.62  63
2023 03 23 09  10 59 31.290   +34 24 25.24  .43690 1.3650 141.3 21.6 6.93  62
2023 03 23 10  10 59 28.577   +34 24 18.56  .43684 1.3649 141.2 21.6 7.25  62
2023 03 23 11  10 59 25.867   +34 24 11.80  .43678 1.3647 141.2 21.6 7.57  62
2023 03 23 12  10 59 23.159   +34 24 04.94  .43672 1.3646 141.2 21.6 7.90  62
2023 03 23 13  10 59 20.455   +34 23 57.99  .43667 1.3644 141.1 21.6 8.23  62
2023 03 23 14  10 59 17.754   +34 23 50.96  .43661 1.3643 141.1 21.6 8.56  62
2023 03 23 15  10 59 15.056   +34 23 43.83  .43655 1.3641 141.1 21.6 8.90  61
2023 03 23 16  10 59 12.361   +34 23 36.62  .43649 1.3640 141.0 21.6 9.25  61
2023 03 23 17  10 59 09.669   +34 23 29.32  .43644 1.3638 141.0 21.6 9.60  61
2023 03 23 18  10 59 06.980   +34 23 21.93  .43638 1.3637 141.0 21.6 9.95  61
2023 03 23 19  10 59 04.294   +34 23 14.45  .43632 1.3635 140.9 21.6 10.3  61
2023 03 23 20  10 59 01.612   +34 23 06.89  .43626 1.3633 140.9 21.6 10.7  61
2023 03 23 21  10 58 58.932   +34 22 59.23  .43621 1.3632 140.9 21.6 11.0  61
2023 03 23 22  10 58 56.256   +34 22 51.48  .43615 1.3630 140.8 21.6 11.4  61
2023 03 23 23  10 58 53.583   +34 22 43.65  .43609 1.3629 140.8 21.6 11.8  61
2023 03 24 00  10 58 50.913   +34 22 35.73  .43604 1.3627 140.8 21.6 12.2  60
2023 03 24 01  10 58 48.247   +34 22 27.72  .43598 1.3626 140.7 21.6 12.6  60
2023 03 24 02  10 58 45.583   +34 22 19.62  .43593 1.3624 140.7 21.6 12.9  60
2023 03 24 03  10 58 42.923   +34 22 11.43  .43587 1.3623 140.7 21.6 13.3  60
2023 03 24 04  10 58 40.266   +34 22 03.15  .43581 1.3621 140.6 21.6 13.7  60
2023 03 24 05  10 58 37.613   +34 21 54.78  .43576 1.3620 140.6 21.6 14.1  60
2023 03 24 06  10 58 34.962   +34 21 46.33  .43570 1.3618 140.6 21.6 14.5  60
2023 03 24 07  10 58 32.315   +34 21 37.78  .43565 1.3617 140.5 21.6 15.0  60
2023 03 24 08  10 58 29.671   +34 21 29.15  .43559 1.3615 140.5 21.6 15.4  60
2023 03 24 09  10 58 27.031   +34 21 20.42  .43554 1.3613 140.5 21.6 15.8  59
2023 03 24 10  10 58 24.394   +34 21 11.61  .43548 1.3612 140.5 21.6 16.2  59
2023 03 24 11  10 58 21.760   +34 21 02.71  .43543 1.3610 140.4 21.6 16.6  59
2023 03 24 12  10 58 19.130   +34 20 53.72  .43537 1.3609 140.4 21.6 17.1  59
2023 03 24 13  10 58 16.503   +34 20 44.65  .43532 1.3607 140.4 21.6 17.5  59
2023 03 24 14  10 58 13.879   +34 20 35.48  .43527 1.3606 140.3 21.6 18.0  59